Tracking 17150 objects as of 4-August-2015
HD Live streaming from Space Station

SL-16 DEB

Track SL-16 DEB now!
10-day predictions
SL-16 DEB is classified as:


NORAD ID: 22336
Int'l Code: 1992-093Z
Perigee: 840.7 km
Apogee: 1,015.0 km
Inclination: 71.1 °
Period: 103.4 minutes
Semi major axis: 7298 km
RCS: 0.2247 m2 (medium)
Launch date: December 25, 1992
Source: Commonwealth of Independent States (former USSR) (CIS)

Note: This is SATELLITE DEBRIS
Your satellite tracking list
Your tracking list is empty





NASA's NSSDC Master Catalog

Two Line Element Set (TLE):
1 22336U 92093Z   15216.54377950  .00000237  00000-0  20634-3 0  9994
2 22336 071.1330 289.8408 0119345 163.4746 293.8612 13.92264968144882

Source of the keplerian elements: AFSPC

N2YO: 363